Hourly Data Report for October 31, 2013

All times are specified in Local Standard Time (LST). Add 1 hour to adjust for Daylight Saving Time where and when it is observed.

CLYDE RIVER A
NUNAVUT

70°29'09.000" N
68°31'01.000" W
26.50 m
2400804
71090
YCY

Download Data

Hourly Data (October 2013)
Hourly Data Report for October 31, 2013
Temp Definition
°C
Dew Point Temp Definition
°C
Rel Hum Definition
%
Wind Dir Definition
10's deg

Wind Spd Definition
km/h
Visibility Definition
km
Stn Press Definition
kPa
Hmdx Definition


Wind Chill Definition


Weather Definition


TIME
00:00 Legend Double Dagger -14.1 -16.1 85 28 11 16.1 100.96   -21 LegendNANA
01:00 Legend Double Dagger -12.4 -14.3 86 28 11 16.1 100.99   -18 LegendNANA
02:00 Legend Double Dagger -10.5 -13.1 82 27 13 16.1 101.00   -17 LegendNANA
03:00 Legend Double Dagger -10.7 -13.2 82 28 13 16.1 100.99   -17 LegendNANA
04:00 Legend Double Dagger -11.2 -13.8 81 30 15 16.1 100.99   -18 LegendNANA
05:00 Legend Double Dagger -10.3 -13.4 78 29 17 16.1 100.99   -18 LegendNANA
06:00 Legend Double Dagger -12.0 -14.6 81 31 21 16.1 101.01   -21 LegendNANA
07:00 Legend Double Dagger -11.0 -14.0 79 29 18 16.1 101.02   -19 LegendNANA
08:00 Legend Double Dagger -10.6 -13.4 80 29 17 16.1 101.03   -18 LegendNANA
09:00 Legend Double Dagger -10.0 -12.7 81 28 15 16.1 101.02   -17 LegendNANA
10:00 Legend Double Dagger -9.0 -12.8 74 33 8 16.1 101.02   -13 LegendNANA
11:00 Legend Double Dagger -10.5 -13.0 82 33 15 16.1 100.99   -17 LegendNANA
12:00 Legend Double Dagger -10.4 -12.9 82 30 18 16.1 100.98   -18 LegendNANA
13:00 Legend Double Dagger -9.3 -12.0 81 28 18 16.1 100.99   -17 LegendNANA
14:00 Legend Double Dagger -9.5 -12.1 82 31 18 16.1 100.99   -17 LegendNANA
15:00 Legend Double Dagger -10.6 -13.2 81 31 18 16.1 101.02   -18 LegendNANA
16:00 Legend Double Dagger -9.7 -12.4 81 30 18 4.8 101.03   -17 LegendNANA
17:00 Legend Double Dagger -10.2 -12.7 82 30 21 16.1 101.03   -18 LegendNANA
18:00 Legend Double Dagger -10.6 -13.3 81 29 24 16.1 101.03   -19 LegendNANA
19:00 Legend Double Dagger -10.6 -13.3 81 29 22 16.1 101.03   -19 LegendNANA
20:00 Legend Double Dagger -10.8 -13.6 80 29 24 16.1 101.02   -20 LegendNANA
21:00 Legend Double Dagger -10.5 -13.5 79 29 26 16.1 101.01   -20 LegendNANA
22:00 Legend Double Dagger -10.7 -13.1 82 30 24 16.1 101.00   -19 LegendNANA
23:00 Legend Double Dagger -10.4 -12.6 84 30 22 16.1 100.99   -19 LegendNANA

Notes on Data Quality.

Legend

  • E = Estimated
  • M = Missing
  • NA = Not Available
  • ‡ = Partner data that is not subject to review by the National Climate Archives
Date modified: